Terug naar catalogus

JCSAT 1

ActiefCommunicatieGEO
NORAD 19874·PAYLOAD·🇯🇵 Japan

Gelanceerd Mar 6, 1989 vanaf Guiana Space Centre

Loading…

TLE

VersSource: Space-Track

Epoch: Sep 14, 2026, 11:18 UTC

1 19874U 89020A   26257.47123446  .00000065  00000-0  00000-0 0  9992
2 19874  14.8196 352.4302 0004248 199.1067 186.3980  0.99534241129688

Volg JCSAT 1 in realtime met AllMySat

Download on the App Store